"Pseudo-MPEC" for P110H5i

Created 2020 May 26 12:07:16 UT using Find_Orb

Click here for an explanation of pseudo-MPECs

 
 Astrometry: 
     P110H5i  C2020 05 20/pj3@kC7h)SKonjAstrometryD9+#NDredacted;:a4.cGbhVX2jF51
     P110H5i  C2020 05 20y#gjclickEKDq@la?_Gvhkj*,$l3A9uco-v9,S'QyROJLhereAeEF51
     P110H5i  C2020 05 20Z2AHW2,djxforQf7LO-3%explanationF@Y'K23\:AG_!4[$Em0cF51
     P110H5i ^C2020 05 21.31865913 49 13.879-25 22 35.34   ~5M7q 21.64GVNEOCP568
     P110H5i ^C2020 05 21.31960613 49 14.190-25 22 35.16   ~5M7q 21.62GVNEOCP568

Station data:
(568) Mauna Kea  (N19.826116 W155.472200)  US/Hawaii.
(F51) Pan-STARRS 1, Haleakala  (N20.707235 W156.255910)  US/Hawaii.
   Observers N. Primak, A. Schultz, S. Watters, J. Thiel, T. Goggia. Measurer
   PS1 Science Consortium. 1.8-m Ritchey-Chrétien + CCD.

Orbital elements:  P110H5i
   Perihelion 2020 Mar 16.207958 +/- 30 TT =  4:59:27 (JD 2458924.707958)
Epoch 2020 May 21.0 TT = JDT 2458990.5   Earth MOID: 0.0128   Ma: 0.0152
M  43.10851643 +/- 19               (J2000 ecliptic)          AutoNEOCP
n   0.65522386 +/- 0.355            Peri.  187.44347 +/- 70
a   1.31283327 +/- 0.474            Node   336.47422 +/- 45
e   0.3021332 +/- 0.238             Incl.    1.21976 +/- 1.9
P   1.50/549.42d           H 25.6   G  0.15   U 12.0  SR
q 0.91618266 +/- 0.143    Q 1.70948389 +/- 39.2
From 5 observations 2020 May 20-21 (24.7 hr); mean residual 0".14
Residuals in arcseconds: 
200520 F51  .10+  .28-    200520 F51  .03-  .19+    200521 568  .18+  .02+    
200520 F51  .07-  .09+    200521 568  .18-  .02-    

Ephemerides (geocentric):
Date (UTC) HH   RA              Dec         delta   r     elong  mag " sig PA
---- -- -- --  -------------   -----------  ------ ------ -----  --- ---- ---
2020 05 26 12  14 13 38.922   -25 00 45.80  .12654 1.1266 152.1 22.6 3306 175
2020 05 26 13  14 13 48.821   -25 00 34.51  .12675 1.1268 152.1 22.6 3350 175
2020 05 26 14  14 13 58.695   -25 00 23.21  .12696 1.1270 152.1 22.6 3394 175
2020 05 26 15  14 14 08.544   -25 00 11.91  .12716 1.1272 152.1 22.6 3438 175
2020 05 26 16  14 14 18.369   -25 00 00.60  .12737 1.1274 152.1 22.6 3483 175
2020 05 26 17  14 14 28.170   -24 59 49.29  .12757 1.1276 152.1 22.6 3528 175
2020 05 26 18  14 14 37.946   -24 59 37.97  .12778 1.1278 152.1 22.6 3572 175
2020 05 26 19  14 14 47.699   -24 59 26.65  .12799 1.1280 152.1 22.6 3618 175
2020 05 26 20  14 14 57.427   -24 59 15.33  .12819 1.1282 152.1 22.6 3663 175
2020 05 26 21  14 15 07.132   -24 59 04.00  .12840 1.1283 152.1 22.6 3708 175
2020 05 26 22  14 15 16.813   -24 58 52.66  .12861 1.1285 152.1 22.6 3754 175
2020 05 26 23  14 15 26.470   -24 58 41.33  .12881 1.1287 152.1 22.6 3800 175
2020 05 27 00  14 15 36.104   -24 58 29.99  .12902 1.1289 152.1 22.6 3846 175
2020 05 27 01  14 15 45.714   -24 58 18.64  .12923 1.1291 152.1 22.6 3893 174
2020 05 27 02  14 15 55.301   -24 58 07.29  .12943 1.1293 152.1 22.6 3939 174
2020 05 27 03  14 16 04.864   -24 57 55.94  .12964 1.1295 152.1 22.6 3986 174
2020 05 27 04  14 16 14.404   -24 57 44.59  .12985 1.1297 152.1 22.6 4033 174
2020 05 27 05  14 16 23.922   -24 57 33.24  .13006 1.1299 152.1 22.6 4080 174
2020 05 27 06  14 16 33.416   -24 57 21.88  .13027 1.1301 152.1 22.6 4127 174
2020 05 27 07  14 16 42.888   -24 57 10.52  .13047 1.1303 152.1 22.6 4175 174
2020 05 27 08  14 16 52.337   -24 56 59.16  .13068 1.1305 152.1 22.6 4223 174
2020 05 27 09  14 17 01.763   -24 56 47.80  .13089 1.1307 152.1 22.6 4271 174
2020 05 27 10  14 17 11.166   -24 56 36.44  .13110 1.1309 152.1 22.6 4319 174
2020 05 27 11  14 17 20.548   -24 56 25.07  .13131 1.1311 152.1 22.7 4367 174
2020 05 27 12  14 17 29.907   -24 56 13.71  .13152 1.1313 152.1 22.7 4416 174
2020 05 27 13  14 17 39.243   -24 56 02.34  .13172 1.1315 152.1 22.7 4465 174
2020 05 27 14  14 17 48.558   -24 55 50.97  .13193 1.1317 152.1 22.7 4514 174
2020 05 27 15  14 17 57.850   -24 55 39.60  .13214 1.1319 152.1 22.7 4563 174
2020 05 27 16  14 18 07.121   -24 55 28.24  .13235 1.1320 152.1 22.7 4612 174
2020 05 27 17  14 18 16.369   -24 55 16.87  .13256 1.1322 152.1 22.7 4662 174
2020 05 27 18  14 18 25.596   -24 55 05.50  .13277 1.1324 152.1 22.7 4712 174
2020 05 27 19  14 18 34.801   -24 54 54.13  .13298 1.1326 152.1 22.7 4762 174
2020 05 27 20  14 18 43.985   -24 54 42.77  .13319 1.1328 152.1 22.7 4812 174
2020 05 27 21  14 18 53.147   -24 54 31.40  .13340 1.1330 152.1 22.7 4862 174
2020 05 27 22  14 19 02.288   -24 54 20.04  .13361 1.1332 152.1 22.7 4912 174
2020 05 27 23  14 19 11.407   -24 54 08.67  .13382 1.1334 152.1 22.7 4963 174
2020 05 28 00  14 19 20.506   -24 53 57.31  .13403 1.1336 152.1 22.7 5014 174
2020 05 28 01  14 19 29.583   -24 53 45.95  .13424 1.1338 152.1 22.7 5065 174
2020 05 28 02  14 19 38.639   -24 53 34.59  .13445 1.1340 152.1 22.7 5116 174
2020 05 28 03  14 19 47.674   -24 53 23.23  .13466 1.1342 152.1 22.7 5168 174
2020 05 28 04  14 19 56.689   -24 53 11.88  .13487 1.1344 152.1 22.7 5219 174
2020 05 28 05  14 20 05.682   -24 53 00.52  .13508 1.1346 152.1 22.7 5271 174
2020 05 28 06  14 20 14.656   -24 52 49.17  .13529 1.1348 152.1 22.7 5323 174
2020 05 28 07  14 20 23.608   -24 52 37.82  .13550 1.1350 152.1 22.7 5375 174
2020 05 28 08  14 20 32.540   -24 52 26.48  .13571 1.1352 152.1 22.7 5428 174
2020 05 28 09  14 20 41.452   -24 52 15.13  .13593 1.1354 152.1 22.7 5480 174
2020 05 28 10  14 20 50.343   -24 52 03.79  .13614 1.1356 152.1 22.7 5533 174
2020 05 28 11  14 20 59.214   -24 51 52.45  .13635 1.1358 152.1 22.7 5586 174